sat.trackr.live / text

‹ back to catalog

STARLINK-3141

NORAD 49459 · 2021-104BD

PAYLOAD ACTIVE UNKNOWN

§ Identity

Operator
Country
US
Launch date
2021-11-13
Launch site
AFETR
Launch vehicle
Mass (kg)
RCS (m²)

Purposes: comms

External: N2YO · Heavens-Above · Gunter

§ Orbital elements

Epoch: 2026-09-19T19:01:03.133632Z

Period
93.79 min
Inclination
53.1605°
Eccentricity
0.0001042
Mean motion
15.35400120 rev/d
Perigee alt
459.0 km
Apogee alt
460.4 km
Semi-major
6,837.9 km
B*
6.1304e-5
RAAN
55.7674°
Arg perigee
80.0117°
Mean anomaly
280.1003°
Rev number
26,824

§ Raw data

STARLINK-31411 49459U 21104BD  26262.79239738  .00001759  00000+0  61304-4 0  99942 49459  53.1605  55.7674 0001042  80.0117 280.1003 15.35400120268248

JSON: /api/v1/satellites/49459 · /tle

For live sub-satellite position, see the globe view (requires WebGL).

§ Visibility from observer

Set your observer location to see the next 7 days of passes ≥ 10°. The values pass through the URL so the page stays shareable.

No JS? Fill the form by hand. The geolocation button needs JavaScript.